| time (UTC) | temp C | wind direction | speed KPH | gust KPH | rain 1hr cm | rain 24hr cm | rain mn cm | humidity % | barometer mb |
| 20260906072104 | 22 | 11 | 0.0 | 9.7 | 0.00 | 0.48 | 0.00 | 91 | 1009.5 |
| 20260906071619 | 22 | 345 | 1.6 | 9.7 | 0.00 | 0.48 | 0.00 | 91 | 1009.5 |
| 20260906070919 | 22 | 335 | 4.8 | 8.0 | 0.00 | 0.48 | 0.00 | 91 | 1009.7 |
| 20260906070004 | 22 | 341 | 4.8 | 6.4 | 0.00 | 0.48 | 0.00 | 90 | 1009.8 |
| 20260906065818 | 22 | 347 | 0.0 | 6.4 | 0.00 | 0.48 | 0.00 | 90 | 1009.8 |
| 20260906064904 | 22 | 26 | 1.6 | 8.0 | 0.00 | 0.48 | 0.00 | 90 | 1009.8 |
| 20260906064204 | 22 | 101 | 1.6 | 8.0 | 0.00 | 0.48 | 0.00 | 90 | 1009.9 |
| 20260906063504 | 22 | 159 | 0.0 | 6.4 | 0.00 | 0.48 | 0.00 | 90 | 1010.0 |
| 20260906062803 | 22 | 285 | 0.0 | 6.4 | 0.00 | 0.48 | 0.00 | 91 | 1010.0 |
| 20260906062103 | 22 | 290 | 0.0 | 8.0 | 0.00 | 0.48 | 0.00 | 91 | 1010.1 |
| 20260906061404 | 22 | 293 | 1.6 | 9.7 | 0.00 | 0.48 | 0.00 | 91 | 1010.2 |
| 20260906060704 | 22 | 306 | 0.0 | 8.0 | 0.00 | 0.48 | 0.00 | 90 | 1010.1 |
| 20260906060004 | 22 | 326 | 6.4 | 8.0 | 0.00 | 0.48 | 0.00 | 90 | 1010.2 |
| 20260906055817 | 22 | 343 | 3.2 | 8.0 | 0.00 | 0.48 | 0.00 | 90 | 1010.3 |
| 20260906054904 | 22 | 348 | 6.4 | 9.7 | 0.00 | 0.48 | 0.00 | 90 | 1010.4 |
| 20260906054204 | 22 | 297 | 6.4 | 12.9 | 0.00 | 0.48 | 0.00 | 91 | 1010.4 |
| 20260906053504 | 22 | 309 | 0.0 | 9.7 | 0.00 | 0.48 | 0.00 | 91 | 1010.3 |
| 20260906053018 | 22 | 316 | 6.4 | 9.7 | 0.00 | 0.48 | 0.00 | 91 | 1010.4 |
| 20260906052104 | 22 | 21 | 1.6 | 9.7 | 0.00 | 0.48 | 0.00 | 90 | 1010.4 |
| 20260906051618 | 22 | 79 | 3.2 | 8.0 | 0.00 | 0.48 | 0.00 | 90 | 1010.5 |
| 20260906050704 | 22 | 105 | 1.6 | 1.6 | 0.00 | 0.48 | 0.00 | 91 | 1010.7 |
| 20260906050218 | 22 | 106 | 0.0 | 1.6 | 0.00 | 0.48 | 0.00 | 90 | 1010.6 |
| 20260906045604 | 22 | 105 | 0.0 | 3.2 | 0.00 | 0.48 | 0.00 | 90 | 1010.4 |
| 20260906044904 | 22 | 108 | 0.0 | 6.4 | 0.00 | 0.48 | 0.00 | 90 | 1010.5 |
| 20260906044204 | 22 | 26 | 3.2 | 9.7 | 0.00 | 0.48 | 0.00 | 90 | 1010.5 |
| 20260906043504 | 22 | 319 | 6.4 | 9.7 | 0.00 | 0.48 | 0.00 | 90 | 1010.4 |
| 20260906043017 | 22 | 276 | 0.0 | 8.0 | 0.00 | 0.48 | 0.00 | 90 | 1010.3 |
| 20260906042317 | 22 | 220 | 4.8 | 6.4 | 0.00 | 0.48 | 0.00 | 89 | 1010.3 |
| 20260906041404 | 23 | 112 | 0.0 | 9.7 | 0.00 | 0.48 | 0.00 | 89 | 1010.2 |
| 20260906040704 | 23 | 95 | 0.0 | 6.4 | 0.00 | 0.48 | 0.00 | 87 | 1010.1 |
| 20260906040220 | 23 | 342 | 1.6 | 8.0 | 0.00 | 0.48 | 0.00 | 87 | 1010.1 |
| 20260906035604 | 23 | 336 | 0.0 | 9.7 | 0.00 | 0.48 | 0.48 | 87 | 1010.1 |
| 20260906034903 | 23 | 332 | 4.8 | 9.7 | 0.00 | 0.48 | 0.48 | 87 | 1010.1 |
| 20260906034203 | 23 | 333 | 1.6 | 11.3 | 0.00 | 0.48 | 0.48 | 87 | 1010.1 |
| 20260906033504 | 23 | 25 | 6.4 | 12.9 | 0.00 | 0.48 | 0.48 | 87 | 1010.1 |
| 20260906032804 | 23 | 54 | 6.4 | 8.0 | 0.00 | 0.48 | 0.48 | 86 | 1010.2 |
| 20260906032317 | 23 | 56 | 1.6 | 9.7 | 0.00 | 0.48 | 0.48 | 86 | 1010.3 |
| 20260906031403 | 23 | 92 | 1.6 | 8.0 | 0.00 | 0.48 | 0.48 | 84 | 1010.3 |
| 20260906030703 | 24 | 86 | 1.6 | 8.0 | 0.00 | 0.48 | 0.48 | 84 | 1010.4 |
| 20260906030218 | 24 | 93 | 4.8 | 6.4 | 0.00 | 0.48 | 0.48 | 84 | 1010.4 |
| 20260906025603 | 24 | 103 | 1.6 | 4.8 | 0.00 | 0.48 | 0.48 | 83 | 1010.4 |
| 20260906024903 | 24 | 109 | 1.6 | 6.4 | 0.00 | 0.48 | 0.48 | 82 | 1010.2 |
| 20260906024204 | 25 | 90 | 1.6 | 9.7 | 0.00 | 0.48 | 0.48 | 81 | 1010.2 |
| 20260906023503 | 25 | 318 | 1.6 | 12.9 | 0.00 | 0.48 | 0.48 | 80 | 1010.2 |
| 20260906022803 | 25 | 309 | 6.4 | 12.9 | 0.00 | 0.48 | 0.48 | 80 | 1010.2 |
| 20260906022317 | 25 | 320 | 0.0 | 9.7 | 0.00 | 0.48 | 0.48 | 79 | 1010.0 |
| 20260906021403 | 25 | 344 | 4.8 | 11.3 | 0.00 | 0.48 | 0.48 | 79 | 1010.0 |
| 20260906020703 | 25 | 2 | 6.4 | 11.3 | 0.00 | 0.48 | 0.48 | 79 | 1010.1 |
| 20260906020003 | 25 | 28 | 6.4 | 8.0 | 0.00 | 0.48 | 0.48 | 80 | 1010.1 |
| 20260906015603 | 25 | 29 | 1.6 | 3.2 | 0.00 | 0.48 | 0.48 | 80 | 1010.1 |
| 20260906015118 | 25 | 5 | 1.6 | 3.2 | 0.00 | 0.48 | 0.48 | 80 | 1010.0 |
| 20260906014203 | 25 | 27 | 1.6 | 3.2 | 0.00 | 0.48 | 0.48 | 79 | 1009.9 |
| 20260906013504 | 25 | 47 | 1.6 | 4.8 | 0.00 | 0.48 | 0.48 | 78 | 1009.9 |
| 20260906012803 | 25 | 40 | 1.6 | 4.8 | 0.00 | 0.48 | 0.48 | 78 | 1009.7 |
| 20260906012103 | 25 | 28 | 1.6 | 3.2 | 0.00 | 0.48 | 0.48 | 76 | 1009.5 |
| 20260906011617 | 25 | 29 | 0.0 | 3.2 | 0.00 | 0.48 | 0.48 | 76 | 1009.5 |
| 20260906010703 | 25 | 24 | 1.6 | 3.2 | 0.00 | 0.48 | 0.48 | 75 | 1009.3 |
| 20260906010219 | 25 | 13 | 1.6 | 3.2 | 0.00 | 0.48 | 0.48 | 75 | 1009.3 |
| 20260906005603 | 25 | 321 | 3.2 | 3.2 | 0.00 | 0.48 | 0.48 | 75 | 1009.3 |
| 20260906004903 | 25 | 17 | 0.0 | 3.2 | 0.00 | 0.48 | 0.48 | 74 | 1009.3 |
| 20260906004203 | 25 | 18 | 1.6 | 3.2 | 0.00 | 0.48 | 0.48 | 73 | 1009.3 |
| 20260906003503 | 26 | 357 | 1.6 | 3.2 | 0.00 | 0.48 | 0.48 | 73 | 1009.2 |
| 20260906002804 | 26 | 28 | 0.0 | 3.2 | 0.00 | 0.48 | 0.48 | 74 | 1009.0 |
| 20260906002103 | 26 | 23 | 1.6 | 3.2 | 0.00 | 0.48 | 0.48 | 72 | 1009.1 |
| 20260906001404 | 26 | 26 | 1.6 | 3.2 | 0.00 | 0.48 | 0.48 | 74 | 1009.1 |
| 20260906000704 | 26 | 53 | 1.6 | 3.2 | 0.00 | 0.48 | 0.48 | 73 | 1009.0 |
| 20260906000004 | 26 | 28 | 0.0 | 3.2 | 0.00 | 0.48 | 0.48 | 72 | 1009.0 |
| 20260905235819 | 26 | 19 | 0.0 | 3.2 | 0.00 | 0.48 | 0.48 | 71 | 1009.0 |
| 20260905234903 | 27 | 162 | 0.0 | 1.6 | 0.00 | 0.48 | 0.48 | 70 | 1008.9 |
| 20260905234203 | 27 | 143 | 0.0 | 3.2 | 0.00 | 0.48 | 0.48 | 70 | 1008.8 |
| 20260905233717 | 27 | 26 | 0.0 | 3.2 | 0.00 | 0.48 | 0.48 | 69 | 1008.7 |
| 20260905232803 | 27 | 29 | 0.0 | 3.2 | 0.00 | 0.48 | 0.48 | 68 | 1008.7 |
| 20260905232103 | 28 | 37 | 1.6 | 3.2 | 0.00 | 0.48 | 0.48 | 65 | 1008.6 |
| 20260905231403 | 28 | 16 | 0.0 | 3.2 | 0.00 | 0.48 | 0.48 | 65 | 1008.5 |
| 20260905230703 | 28 | 22 | 1.6 | 3.2 | 0.00 | 0.48 | 0.48 | 63 | 1008.6 |
| 20260905230218 | 28 | 12 | 1.6 | 3.2 | 0.00 | 0.48 | 0.48 | 62 | 1008.6 |
| 20260905225816 | 28 | 8 | 0.0 | 3.2 | 0.00 | 0.48 | 0.48 | 62 | 1008.6 |
| 20260905224903 | 28 | 359 | 1.6 | 6.4 | 0.00 | 0.48 | 0.48 | 61 | 1008.7 |
| 20260905224417 | 29 | 354 | 1.6 | 6.4 | 0.00 | 0.48 | 0.48 | 60 | 1008.6 |
| 20260905223503 | 30 | 335 | 0.0 | 6.4 | 0.00 | 0.48 | 0.48 | 56 | 1008.4 |
| 20260905222803 | 30 | 331 | 1.6 | 8.0 | 0.00 | 0.48 | 0.48 | 57 | 1008.4 |
| 20260905222103 | 31 | 286 | 1.6 | 6.4 | 0.00 | 0.48 | 0.48 | 55 | 1008.3 |
| 20260905221403 | 31 | 290 | 4.8 | 6.4 | 0.00 | 0.48 | 0.48 | 53 | 1008.1 |
| 20260905220703 | 31 | 264 | 3.2 | 6.4 | 0.00 | 0.48 | 0.48 | 53 | 1008.1 |
| 20260905220003 | 31 | 247 | 3.2 | 6.4 | 0.00 | 0.48 | 0.48 | 54 | 1008.1 |
| 20260905215603 | 31 | 209 | 1.6 | 6.4 | 0.00 | 0.48 | 0.48 | 54 | 1008.3 |
| 20260905214903 | 31 | 218 | 4.8 | 6.4 | 0.00 | 0.48 | 0.48 | 52 | 1008.2 |
| 20260905214416 | 31 | 254 | 3.2 | 6.4 | 0.00 | 0.48 | 0.48 | 52 | 1008.3 |
| 20260905213503 | 31 | 256 | 3.2 | 6.4 | 0.00 | 0.48 | 0.48 | 50 | 1008.3 |
| 20260905212803 | 31 | 270 | 6.4 | 6.4 | 0.00 | 0.48 | 0.48 | 50 | 1008.4 |
| 20260905212103 | 31 | 256 | 1.6 | 6.4 | 0.00 | 0.48 | 0.48 | 51 | 1008.5 |
| 20260905211403 | 30 | 219 | 0.0 | 6.4 | 0.00 | 0.48 | 0.48 | 54 | 1008.5 |
| 20260905210703 | 30 | 172 | 0.0 | 8.0 | 0.00 | 0.48 | 0.48 | 56 | 1008.7 |
| 20260905210004 | 30 | 217 | 6.4 | 8.0 | 0.00 | 0.48 | 0.48 | 56 | 1008.6 |
| 20260905205603 | 30 | 189 | 4.8 | 9.7 | 0.00 | 0.48 | 0.48 | 55 | 1008.6 |
| 20260905205118 | 29 | 155 | 1.6 | 9.7 | 0.00 | 0.48 | 0.48 | 59 | 1008.7 |
| 20260905204203 | 30 | 235 | 4.8 | 6.4 | 0.00 | 0.48 | 0.48 | 56 | 1008.6 |
| 20260905203718 | 29 | 216 | 1.6 | 6.4 | 0.00 | 0.48 | 0.48 | 57 | 1008.6 |
| 20260905202803 | 29 | 165 | 1.6 | 8.0 | 0.00 | 0.48 | 0.48 | 60 | 1008.8 |
| 20260905202103 | 28 | 155 | 4.8 | 9.7 | 0.00 | 0.48 | 0.48 | 59 | 1009.0 |
| 20260905201403 | 29 | 97 | 3.2 | 9.7 | 0.00 | 0.48 | 0.48 | 59 | 1009.1 |
| 20260905200703 | 29 | 103 | 4.8 | 9.7 | 0.00 | 0.48 | 0.48 | 58 | 1009.2 |
| 20260905200004 | 29 | 172 | 0.0 | 9.7 | 0.00 | 0.48 | 0.48 | 58 | 1009.2 |
| 20260905195603 | 29 | 166 | 0.0 | 8.0 | 0.00 | 0.48 | 0.48 | 55 | 1009.2 |
| 20260905195118 | 28 | 163 | 1.6 | 9.7 | 0.00 | 0.48 | 0.48 | 57 | 1009.3 |
| 20260905194203 | 28 | 131 | 8.0 | 8.0 | 0.00 | 0.48 | 0.48 | 56 | 1009.5 |
| 20260905193503 | 28 | 47 | 4.8 | 8.0 | 0.00 | 0.48 | 0.48 | 58 | 1009.7 |
| 20260905192803 | 27 | 143 | 1.6 | 9.7 | 0.00 | 0.48 | 0.48 | 63 | 1010.0 |
| 20260905192103 | 27 | 106 | 6.4 | 9.7 | 0.00 | 0.48 | 0.48 | 59 | 1009.9 |
| 20260905191403 | 27 | 92 | 3.2 | 9.7 | 0.00 | 0.48 | 0.48 | 62 | 1010.1 |
| 20260905190703 | 27 | 25 | 4.8 | 9.7 | 0.00 | 0.48 | 0.48 | 66 | 1010.2 |
| 20260905190003 | 26 | 18 | 6.4 | 9.7 | 0.00 | 0.48 | 0.48 | 69 | 1010.3 |
| 20260905185817 | 26 | 14 | 3.2 | 9.7 | 0.00 | 0.48 | 0.48 | 68 | 1010.3 |
| 20260905184903 | 26 | 138 | 0.0 | 11.3 | 0.00 | 0.48 | 0.48 | 71 | 1010.6 |
| 20260905184203 | 26 | 118 | 1.6 | 11.3 | 0.00 | 0.48 | 0.48 | 72 | 1010.7 |
| 20260905183503 | 25 | 157 | 3.2 | 11.3 | 0.00 | 0.48 | 0.48 | 73 | 1010.9 |
| 20260905183018 | 25 | 148 | 3.2 | 9.7 | 0.00 | 0.48 | 0.48 | 77 | 1011.0 |
| 20260905182103 | 24 | 126 | 3.2 | 6.4 | 0.00 | 0.48 | 0.48 | 75 | 1011.3 |
| 20260905181403 | 23 | 109 | 6.4 | 6.4 | 0.00 | 0.48 | 0.48 | 81 | 1011.6 |
| 20260905180703 | 22 | 107 | 1.6 | 4.8 | 0.00 | 0.48 | 0.48 | 88 | 1012.1 |
| 20260905180003 | 22 | 107 | 4.8 | 6.4 | 0.00 | 0.48 | 0.48 | 92 | 1012.2 |
| 20260905175603 | 21 | 108 | 1.6 | 6.4 | 0.00 | 0.48 | 0.48 | 93 | 1012.3 |
| 20260905174903 | 21 | 108 | 1.6 | 4.8 | 0.08 | 0.48 | 0.48 | 94 | 1012.7 |
| 20260905174203 | 21 | 105 | 1.6 | 3.2 | 0.20 | 0.48 | 0.48 | 93 | 1013.0 |
| 20260905173503 | 21 | 115 | 1.6 | 4.8 | 0.38 | 0.48 | 0.48 | 92 | 1013.3 |
| 20260905172803 | 21 | 117 | 0.0 | 9.7 | 0.48 | 0.48 | 0.48 | 92 | 1013.5 |
| 20260905172104 | 20 | 113 | 4.8 | 11.3 | 0.48 | 0.48 | 0.48 | 91 | 1014.0 |
| 20260905171618 | 20 | 113 | 4.8 | 16.1 | 0.48 | 0.48 | 0.48 | 91 | 1014.1 |
| 20260905170918 | 20 | 120 | 6.4 | 16.1 | 0.48 | 0.48 | 0.48 | 91 | 1014.1 |
| 20260905170003 | 21 | 111 | 3.2 | 8.0 | 0.48 | 0.48 | 0.48 | 92 | 1014.3 |
| 20260905165603 | 21 | 106 | 3.2 | 12.9 | 0.48 | 0.48 | 0.48 | 91 | 1014.1 |
| 20260905164903 | 21 | 56 | 1.6 | 19.3 | 0.43 | 0.43 | 0.43 | 89 | 1013.6 |
| 20260905164203 | 21 | 22 | 9.7 | 29.0 | 0.30 | 0.30 | 0.30 | 87 | 1013.3 |
| 20260905163717 | 21 | 5 | 6.4 | 29.0 | 0.15 | 0.15 | 0.18 | 85 | 1013.4 |
| 20260905162803 | 23 | 359 | 12.9 | 30.6 | 0.00 | 0.00 | 0.00 | 79 | 1013.3 |
| 20260905162103 | 25 | 351 | 9.7 | 41.8 | 0.00 | 0.00 | 0.00 | 74 | 1012.8 |
| 20260905161403 | 29 | 340 | 14.5 | 29.0 | 0.00 | 0.00 | 0.00 | 60 | 1012.0 |
| 20260905160703 | 30 | 320 | 3.2 | 9.7 | 0.00 | 0.00 | 0.00 | 61 | 1011.0 |
| 20260905160003 | 30 | 306 | 4.8 | 9.7 | 0.00 | 0.00 | 0.00 | 60 | 1010.9 |
| 20260905155603 | 30 | 305 | 0.0 | 4.8 | 0.00 | 0.00 | 0.00 | 59 | 1011.1 |
| 20260905154903 | 30 | 254 | 0.0 | 6.4 | 0.00 | 0.00 | 0.00 | 61 | 1011.1 |
| 20260905154203 | 30 | 286 | 0.0 | 8.0 | 0.00 | 0.00 | 0.00 | 63 | 1011.2 |
| 20260905153503 | 30 | 289 | 4.8 | 8.0 | 0.00 | 0.00 | 0.00 | 63 | 1011.1 |
| 20260905152804 | 29 | 300 | 4.8 | 6.4 | 0.00 | 0.00 | 0.00 | 64 | 1011.1 |
| 20260905152103 | 29 | 275 | 1.6 | 9.7 | 0.00 | 0.00 | 0.00 | 66 | 1011.2 |
| 20260905151617 | 29 | 279 | 0.0 | 9.7 | 0.00 | 0.00 | 0.00 | 66 | 1011.1 |
| 20260905150703 | 28 | 286 | 4.8 | 8.0 | 0.00 | 0.00 | 0.00 | 68 | 1011.1 |
| 20260905150003 | 28 | 281 | 3.2 | 8.0 | 0.00 | 0.00 | 0.00 | 67 | 1011.1 |
| 20260905145818 | 28 | 287 | 1.6 | 8.0 | 0.00 | 0.00 | 0.00 | 67 | 1011.1 |
| 20260905145118 | 28 | 279 | 1.6 | 8.0 | 0.00 | 0.00 | 0.00 | 69 | 1011.1 |
| 20260905144203 | 27 | 268 | 1.6 | 8.0 | 0.00 | 0.00 | 0.00 | 70 | 1011.2 |
| 20260905143503 | 27 | 271 | 3.2 | 6.4 | 0.00 | 0.00 | 0.00 | 71 | 1011.3 |
| 20260905142803 | 27 | 258 | 1.6 | 6.4 | 0.00 | 0.00 | 0.00 | 72 | 1011.5 |
| 20260905142103 | 27 | 225 | 4.8 | 6.4 | 0.00 | 0.00 | 0.00 | 72 | 1011.5 |
| 20260905141403 | 27 | 246 | 1.6 | 8.0 | 0.00 | 0.00 | 0.00 | 73 | 1011.5 |
| 20260905140703 | 26 | 264 | 4.8 | 8.0 | 0.00 | 0.00 | 0.00 | 74 | 1011.6 |
| 20260905140004 | 26 | 266 | 4.8 | 6.4 | 0.00 | 0.00 | 0.00 | 75 | 1011.6 |
| 20260905135603 | 26 | 268 | 3.2 | 6.4 | 0.00 | 0.00 | 0.00 | 75 | 1011.6 |
| 20260905134903 | 26 | 164 | 0.0 | 6.4 | 0.00 | 0.00 | 0.00 | 77 | 1011.7 |
| 20260905134203 | 25 | 196 | 3.2 | 6.4 | 0.00 | 0.00 | 0.00 | 78 | 1011.9 |
| 20260905133503 | 25 | 170 | 1.6 | 8.0 | 0.00 | 0.00 | 0.00 | 80 | 1012.0 |
| 20260905132803 | 25 | 132 | 1.6 | 9.7 | 0.00 | 0.00 | 0.00 | 81 | 1012.0 |
| 20260905132318 | 25 | 139 | 4.8 | 9.7 | 0.00 | 0.00 | 0.00 | 81 | 1012.1 |
| 20260905131403 | 24 | 138 | 6.4 | 11.3 | 0.00 | 0.00 | 0.00 | 83 | 1012.3 |
| 20260905130703 | 24 | 134 | 4.8 | 6.4 | 0.00 | 0.00 | 0.00 | 85 | 1012.4 |
| 20260905130003 | 23 | 130 | 3.2 | 6.4 | 0.00 | 0.00 | 0.00 | 85 | 1012.5 |
| 20260905125603 | 23 | 129 | 3.2 | 4.8 | 0.00 | 0.00 | 0.00 | 86 | 1012.6 |
| 20260905124903 | 23 | 129 | 3.2 | 6.4 | 0.00 | 0.00 | 0.00 | 87 | 1012.8 |
| 20260905124203 | 23 | 139 | 1.6 | 4.8 | 0.00 | 0.00 | 0.00 | 89 | 1012.8 |
| 20260905123503 | 22 | 251 | 0.0 | 6.4 | 0.00 | 0.00 | 0.00 | 89 | 1012.8 |
| 20260905123017 | 22 | 3 | 0.0 | 8.0 | 0.00 | 0.00 | 0.00 | 89 | 1012.7 |
| 20260905122103 | 22 | 349 | 4.8 | 9.7 | 0.00 | 0.00 | 0.00 | 90 | 1012.8 |
| 20260905121403 | 22 | 351 | 4.8 | 9.7 | 0.00 | 0.00 | 0.00 | 91 | 1012.8 |
| 20260905120703 | 22 | 345 | 0.0 | 8.0 | 0.00 | 0.00 | 0.00 | 92 | 1012.7 |
| 20260905120003 | 21 | 356 | 3.2 | 11.3 | 0.00 | 0.00 | 0.00 | 93 | 1012.7 |
| 20260905115819 | 21 | 347 | 3.2 | 11.3 | 0.00 | 0.00 | 0.00 | 93 | 1012.7 |
| 20260905114903 | 21 | 304 | 4.8 | 11.3 | 0.00 | 0.00 | 0.00 | 93 | 1012.5 |
| 20260905114417 | 21 | 310 | 0.0 | 11.3 | 0.00 | 0.00 | 0.00 | 93 | 1012.5 |
| 20260905113503 | 21 | 283 | 4.8 | 8.0 | 0.00 | 0.00 | 0.00 | 93 | 1012.2 |
| 20260905113017 | 21 | 149 | 1.6 | 4.8 | 0.00 | 0.00 | 0.00 | 93 | 1012.3 |
| 20260905112103 | 21 | 113 | 1.6 | 8.0 | 0.00 | 0.00 | 0.00 | 92 | 1012.2 |
| 20260905111403 | 21 | 79 | 1.6 | 9.7 | 0.00 | 0.00 | 0.00 | 92 | 1012.2 |
| 20260905110703 | 22 | 76 | 0.0 | 9.7 | 0.00 | 0.00 | 0.00 | 91 | 1012.1 |
| 20260905110218 | 22 | 16 | 3.2 | 9.7 | 0.00 | 0.00 | 0.00 | 91 | 1012.0 |
| 20260905105818 | 22 | 19 | 3.2 | 9.7 | 0.00 | 0.00 | 0.00 | 91 | 1012.0 |
| 20260905105118 | 22 | 42 | 3.2 | 9.7 | 0.00 | 0.00 | 0.00 | 91 | 1011.8 |
| 20260905104203 | 22 | 125 | 3.2 | 6.4 | 0.00 | 0.00 | 0.00 | 90 | 1011.7 |
| 20260905103503 | 22 | 9 | 1.6 | 6.4 | 0.00 | 0.00 | 0.00 | 90 | 1011.5 |
| 20260905102803 | 22 | 124 | 6.4 | 6.4 | 0.00 | 0.00 | 0.00 | 90 | 1011.7 |
| 20260905102103 | 22 | 198 | 1.6 | 8.0 | 0.00 | 0.00 | 0.00 | 88 | 1011.5 |
| 20260905101403 | 22 | 332 | 0.0 | 8.0 | 0.00 | 0.00 | 0.00 | 88 | 1011.5 |
| 20260905100917 | 22 | 336 | 0.0 | 8.0 | 0.00 | 0.00 | 0.00 | 88 | 1011.4 |
| 20260905100003 | 22 | 339 | 1.6 | 9.7 | 0.00 | 0.00 | 0.00 | 89 | 1011.5 |
| 20260905095603 | 22 | 350 | 3.2 | 9.7 | 0.00 | 0.00 | 0.00 | 89 | 1011.5 |
| 20260905094903 | 22 | 349 | 3.2 | 8.0 | 0.00 | 0.00 | 0.00 | 90 | 1011.4 |
| 20260905094203 | 22 | 352 | 4.8 | 6.4 | 0.00 | 0.00 | 0.00 | 90 | 1011.3 |
| 20260905093503 | 22 | 320 | 6.4 | 6.4 | 0.00 | 0.00 | 0.00 | 90 | 1011.3 |
| 20260905092803 | 22 | 310 | 0.0 | 6.4 | 0.00 | 0.00 | 0.00 | 90 | 1011.2 |
| 20260905092103 | 22 | 302 | 1.6 | 6.4 | 0.00 | 0.00 | 0.00 | 90 | 1011.2 |
| 20260905091403 | 22 | 242 | 1.6 | 4.8 | 0.00 | 0.00 | 0.00 | 90 | 1011.1 |
| 20260905090703 | 22 | 190 | 3.2 | 6.4 | 0.00 | 0.00 | 0.00 | 90 | 1011.2 |
| 20260905090003 | 22 | 333 | 0.0 | 6.4 | 0.00 | 0.00 | 0.00 | 90 | 1011.2 |
| 20260905085603 | 22 | 328 | 4.8 | 6.4 | 0.00 | 0.00 | 0.00 | 90 | 1011.3 |
| 20260905084903 | 22 | 295 | 0.0 | 6.4 | 0.00 | 0.00 | 0.00 | 90 | 1011.3 |
| 20260905084203 | 22 | 293 | 0.0 | 6.4 | 0.00 | 0.00 | 0.00 | 90 | 1011.3 |
| 20260905083503 | 22 | 297 | 3.2 | 6.4 | 0.00 | 0.00 | 0.00 | 89 | 1011.3 |
| 20260905083018 | 22 | 353 | 0.0 | 6.4 | 0.00 | 0.00 | 0.00 | 88 | 1011.4 |
| 20260905082103 | 22 | 350 | 3.2 | 8.0 | 0.00 | 0.00 | 0.00 | 88 | 1011.4 |
| 20260905081616 | 22 | 250 | 0.0 | 4.8 | 0.00 | 0.00 | 0.00 | 88 | 1011.4 |
| 20260905080703 | 22 | 296 | 3.2 | 4.8 | 0.00 | 0.00 | 0.00 | 87 | 1011.5 |
| 20260905080003 | 23 | 352 | 0.0 | 6.4 | 0.00 | 0.00 | 0.00 | 86 | 1011.5 |
| 20260905075603 | 23 | 354 | 0.0 | 6.4 | 0.00 | 0.00 | 0.00 | 86 | 1011.6 |
| 20260905075117 | 23 | 26 | 4.8 | 9.7 | 0.00 | 0.00 | 0.00 | 86 | 1011.6 |
| 20260905074203 | 23 | 82 | 0.0 | 9.7 | 0.00 | 0.00 | 0.00 | 86 | 1011.7 |
| 20260905073503 | 23 | 83 | 3.2 | 8.0 | 0.00 | 0.00 | 0.00 | 85 | 1011.6 |
| 20260905072803 | 23 | 86 | 6.4 | 8.0 | 0.00 | 0.00 | 0.00 | 85 | 1011.8 |